East Midlands, United Kingdom

1:07 PM GMT on December 18, 2017 (GMT +0000)
East Midlands

Weather History for EGNX - April, 2013

Change the Weather History Date:

Wednesday, April 10, 2013

  Actual Average Record
Temperature  
Mean Temperature 42 °F -  
Max Temperature 51 °F 56 °F 68 °F (2015)
Min Temperature 33 °F 41 °F 26 °F (2006)
Degree Days  
Heating Degree Days 23    
Moisture  
Dew Point 33 °F    
Average Humidity 71    
Maximum Humidity 87    
Minimum Humidity 54    
Precipitation  
Precipitation 0.00 in - - ()
Sea Level Pressure  
Sea Level Pressure 29.62 in    
Wind  
Wind Speed 6 mph ()    
Max Wind Speed 13 mph    
Max Gust Speed 17 mph    
Visibility 4.4 miles    
Events      
Averages and records for this station are not official NWS values.
T = Trace of Precipitation, MM = Missing Value Source: Averaged Metar Reports

Daily Weather History Graph

Daily Weather History Graph

Search for Another Location

Airport or City:

Trip Planner

Search our weather history database for the weather conditions in past years. The results will help you decide how hot, cold, wet, or windy it might be!

Date:

Astronomy

Apr. 10, 2013 Rise Set
Actual Time 6:18 AM BST 7:56 PM BST
Civil Twilight 5:42 AM BST 8:32 PM BST
Nautical Twilight 4:57 AM BST 9:16 PM BST
Astronomical Twilight 4:08 AM BST 10:06 PM BST
Moon 6:03 AM BST (4/10) 8:24 PM BST (4/10)
Length of Visible Light 14h 50m
Length of Day
13h 37m
New Moon, 0% of the Moon is Illuminated
Apr 10
New Moon
Apr 18
First Quarter
Apr 25
Full
May 2
Last Quarter
May 10
New

Hourly Weather History & Observations

Time (BST) Temp. Windchill Dew Point Humidity Pressure Visibility Wind Dir Wind Speed Gust Speed Precip Events Conditions
12:20 AM 37.4 °F 30.3 °F 32.0 °F 81% 29.62 in 5.6 mi NNE 10.4 mph - N/A   Mostly Cloudy
12:50 AM 37.4 °F 30.8 °F 32.0 °F 81% 29.62 in 5.6 mi NNE 9.2 mph - N/A   Mostly Cloudy
1:20 AM 37.4 °F 30.3 °F 32.0 °F 81% 29.62 in 5.6 mi NNE 10.4 mph - N/A   Overcast
1:50 AM 37.4 °F 31.4 °F 32.0 °F 81% 29.62 in 5.6 mi NE 8.1 mph - N/A   Overcast
2:20 AM 37.4 °F 31.4 °F 32.0 °F 81% 29.62 in 5.6 mi NE 8.1 mph - N/A   Overcast
2:50 AM 37.4 °F 32.1 °F 32.0 °F 81% 29.62 in 5.6 mi NNE 6.9 mph - N/A   Overcast
3:20 AM 37.4 °F 32.1 °F 32.0 °F 81% 29.62 in 5.6 mi North 6.9 mph - N/A   Mostly Cloudy
3:50 AM 35.6 °F 27.5 °F 30.2 °F 81% 29.65 in 5.0 mi North 11.5 mph - N/A   Mostly Cloudy
4:20 AM 33.8 °F 27.7 °F 30.2 °F 87% 29.65 in 6.2 mi NNE 6.9 mph - N/A   Scattered Clouds
4:50 AM 33.8 °F 28.6 °F 30.2 °F 87% 29.65 in 6.2 mi North 5.8 mph - N/A   Scattered Clouds
5:20 AM 33.8 °F 30.8 °F 30.2 °F 87% 29.65 in 6.2 mi North 3.5 mph - N/A   Mostly Cloudy
5:50 AM 33.8 °F - 30.2 °F 87% 29.65 in 5.6 mi Calm Calm - N/A   Mostly Cloudy
6:20 AM 33.8 °F - 30.2 °F 87% 29.65 in 5.6 mi Calm Calm - N/A   Scattered Clouds
6:50 AM 33.8 °F - 30.2 °F 87% 29.68 in 3.7 mi Calm Calm - N/A   Scattered Clouds
7:20 AM 35.6 °F - 30.2 °F 81% 29.68 in 3.1 mi Calm Calm - N/A   Haze
7:50 AM 35.6 °F 32.8 °F 32.0 °F 87% 29.68 in 3.1 mi Variable 3.5 mph - N/A   Haze
8:20 AM 37.4 °F 33.8 °F 32.0 °F 81% 29.68 in 3.1 mi East 4.6 mph - N/A   Haze
8:50 AM 37.4 °F 33.8 °F 32.0 °F 81% 29.68 in 3.1 mi East 4.6 mph - N/A   Haze
9:20 AM 37.4 °F 32.1 °F 32.0 °F 81% 29.68 in 3.1 mi ESE 6.9 mph - N/A   Haze
9:50 AM 39.2 °F 35.9 °F 32.0 °F 75% 29.68 in 3.1 mi SSE 4.6 mph - N/A   Haze
10:20 AM 39.2 °F - 32.0 °F 75% 29.68 in 3.1 mi Variable 2.3 mph - N/A   Haze
10:50 AM 42.8 °F 41.1 °F 32.0 °F 66% 29.68 in 3.7 mi Variable 3.5 mph - N/A   Partly Cloudy
11:20 AM 42.8 °F 39.3 °F 32.0 °F 66% 29.68 in 3.7 mi ESE 5.8 mph - N/A   Unknown
11:50 AM 44.6 °F - 33.8 °F 66% 29.68 in 3.7 mi Variable 2.3 mph - N/A   Unknown
12:20 PM 46.4 °F 44.3 °F 33.8 °F 62% 29.68 in 3.7 mi Variable 4.6 mph 17.3 mph N/A   Scattered Clouds
12:50 PM 46.4 °F 43.5 °F 33.8 °F 62% 29.68 in 3.7 mi SSW 5.8 mph - N/A   Scattered Clouds
1:20 PM 46.4 °F 44.3 °F 33.8 °F 62% 29.68 in 3.7 mi Variable 4.6 mph - N/A   Unknown
1:50 PM 48.2 °F - 35.6 °F 62% 29.65 in 3.7 mi ESE 5.8 mph - N/A   Partly Cloudy
2:20 PM 50.0 °F - 35.6 °F 58% 29.65 in 3.1 mi Variable 6.9 mph - N/A   Haze
2:50 PM 51.8 °F - 35.6 °F 54% 29.65 in 3.1 mi South 8.1 mph - N/A   Haze
3:20 PM 51.8 °F - 35.6 °F 54% 29.62 in 3.1 mi South 9.2 mph - N/A   Haze
3:50 PM 51.8 °F - 37.4 °F 58% 29.62 in 3.1 mi SSE 6.9 mph - N/A   Haze
4:20 PM 51.8 °F - 37.4 °F 58% 29.62 in 3.1 mi South 9.2 mph - N/A   Haze
4:50 PM 51.8 °F - 35.6 °F 54% 29.59 in 3.1 mi South 8.1 mph - N/A   Haze
5:20 PM 51.8 °F - 37.4 °F 58% 29.59 in 4.3 mi SSE 6.9 mph - N/A   Scattered Clouds
5:50 PM 51.8 °F - 35.6 °F 54% 29.59 in 4.3 mi SE 8.1 mph - N/A   Mostly Cloudy
6:20 PM 51.8 °F - 35.6 °F 54% 29.59 in 4.3 mi SE 10.4 mph - N/A   Mostly Cloudy
6:50 PM 50.0 °F - 35.6 °F 58% 29.56 in 4.3 mi SE 8.1 mph - N/A   Partly Cloudy
7:20 PM 50.0 °F - 35.6 °F 58% 29.56 in 5.0 mi ESE 8.1 mph - N/A   Partly Cloudy
7:50 PM 48.2 °F - 35.6 °F 62% 29.56 in 5.0 mi ESE 6.9 mph - N/A   Unknown
8:20 PM 46.4 °F 41.9 °F 35.6 °F 66% 29.56 in 4.3 mi East 9.2 mph - N/A   Unknown
8:50 PM 46.4 °F 41.5 °F 35.6 °F 66% 29.53 in 4.3 mi East 10.4 mph - N/A   Mostly Cloudy
9:20 PM 46.4 °F 40.7 °F 33.8 °F 62% 29.53 in 4.3 mi East 12.7 mph - N/A   Mostly Cloudy
9:50 PM 44.6 °F 38.4 °F 33.8 °F 66% 29.53 in 5.0 mi East 12.7 mph - N/A   Mostly Cloudy
10:20 PM 42.8 °F 37.5 °F 35.6 °F 76% 29.53 in 5.0 mi East 9.2 mph - N/A   Scattered Clouds
10:50 PM 42.8 °F 38.0 °F 35.6 °F 76% 29.53 in 5.0 mi ENE 8.1 mph - N/A   Partly Cloudy
11:20 PM 42.8 °F 38.0 °F 35.6 °F 76% 29.53 in 6.2 mi ENE 8.1 mph - N/A   Partly Cloudy
11:50 PM 41.0 °F 36.4 °F 35.6 °F 81% 29.50 in 6.2 mi ENE 6.9 mph - N/A   Partly Cloudy